Location: Unspecified
(0.0000°N, 0.0000°E)
Time: 14:57:33
(UTC+00:00)

Altair - All Passes

Search period start: 12 April 2021 00:00
Search period end: 22 April 2021 00:00
Orbit: 1501 x 1683 km, 47.2° (Epoch: 11 April)

Date Brightness Start Highest point End Pass type
(mag) Time Alt. Az. Time Alt. Az. Time Alt. Az.
12 Apr - 03:59:33 10° SSW 04:09:24 54° SE 04:18:58 10° NE visible
12 Apr - 06:05:19 10° WSW 06:14:03 34° NW 06:22:35 10° NNE daylight
12 Apr - 14:47:32 10° N 14:53:50 20° NE 15:00:10 10° E daylight
12 Apr - 16:49:15 10° NW 16:58:26 78° SW 17:07:55 10° SE daylight
12 Apr - 18:59:11 10° WSW 19:03:32 14° SW 19:07:57 10° SSW visible
13 Apr - 03:34:30 10° SSW 03:44:11 48° SE 03:53:36 10° ENE visible
13 Apr - 05:39:46 10° WSW 05:48:50 38° NW 05:57:41 10° NNE daylight
13 Apr - 14:22:59 10° N 14:28:36 18° NE 14:34:15 10° E daylight
13 Apr - 16:24:05 10° NW 16:33:17 86° SW 16:42:45 10° SE daylight
13 Apr - 18:33:00 10° W 18:38:14 16° SW 18:43:35 10° S visible
14 Apr - 03:09:29 10° SSW 03:18:57 43° SE 03:28:12 10° ENE visible
14 Apr - 05:14:16 10° WSW 05:23:37 43° NW 05:32:46 10° NNE visible
14 Apr - 13:58:33 10° NNE 14:03:22 15° NE 14:08:10 10° ENE daylight
14 Apr - 15:58:57 10° NW 16:08:08 85° NE 16:17:34 10° SE daylight
14 Apr - 18:07:02 10° W 18:12:58 18° SW 18:19:03 10° S daylight
15 Apr - 02:44:30 10° SSW 02:53:43 39° SE 03:02:45 10° ENE visible
15 Apr - 04:48:49 10° WSW 04:58:25 48° NW 05:07:47 10° NNE visible
15 Apr - 13:34:23 10° NNE 13:38:06 13° NE 13:41:48 10° ENE daylight
15 Apr - 15:33:51 10° NW 15:42:59 77° NE 15:52:21 10° SE daylight
15 Apr - 17:41:13 10° W 17:47:43 21° SW 17:54:23 10° S daylight
16 Apr - 02:19:34 10° SSW 02:28:29 34° SE 02:37:14 10° ENE visible
16 Apr - 04:23:25 10° SW 04:33:12 54° NW 04:42:47 10° NNE visible
16 Apr - 13:10:51 10° NNE 13:12:49 11° NE 13:14:47 10° ENE daylight
16 Apr - 15:08:46 10° NNW 15:17:50 68° NE 15:27:06 10° SE daylight
16 Apr - 17:15:30 10° W 17:22:29 24° SW 17:29:39 10° S daylight
17 Apr - 01:54:39 10° S 02:03:14 31° SE 02:11:40 10° ENE visible
17 Apr - 03:58:02 10° SW 04:08:00 60° NW 04:17:44 10° NNE visible
17 Apr - 14:43:43 10° NNW 14:52:42 61° NE 15:01:49 10° SE daylight
17 Apr - 16:49:52 10° WNW 16:57:16 27° SW 17:04:51 10° S daylight
18 Apr - 01:29:49 10° S 01:37:59 27° SE 01:46:02 10° ENE visible
18 Apr - 03:32:43 10° SW 03:42:48 67° NW 03:52:40 10° NNE visible
18 Apr - 05:44:50 10° WNW 05:48:03 12° NW 05:51:15 10° NNW daylight
18 Apr - 14:18:42 10° NNW 14:27:32 54° NE 14:36:31 10° SE daylight
18 Apr - 16:24:19 10° WNW 16:32:04 31° SW 16:40:00 10° S daylight
19 Apr - 01:05:01 10° S 01:12:42 24° SE 01:20:19 10° E visible
19 Apr - 03:07:25 10° SW 03:17:35 75° NW 03:27:34 10° NNE visible
19 Apr - 05:18:04 10° WNW 05:22:43 14° NW 05:27:20 10° NNW visible
19 Apr - 13:53:41 10° NNW 14:02:24 48° NE 14:11:10 10° ESE daylight
19 Apr - 15:58:48 10° WNW 16:06:52 35° SW 16:15:07 10° SSE daylight
20 Apr - 00:40:17 10° S 00:47:25 21° SE 00:54:30 10° E visible
20 Apr - 02:42:10 10° SW 02:52:24 83° NW 03:02:26 10° NE visible
20 Apr - 04:51:45 10° W 04:57:25 16° NW 05:03:02 10° N visible
20 Apr - 13:28:44 10° NNW 13:37:14 42° NE 13:45:47 10° ESE daylight
20 Apr - 15:33:22 10° WNW 15:41:41 39° SW 15:50:11 10° SSE daylight
21 Apr - 00:15:39 10° S 00:22:07 19° SE 00:28:34 10° E night (unlit)
21 Apr - 02:16:57 10° SW 02:27:11 89° SE 02:37:15 10° NE visible
21 Apr - 04:25:39 10° W 04:32:07 19° NW 04:38:33 10° N visible
21 Apr - 13:03:48 10° NNW 13:12:04 37° NE 13:20:20 10° ESE daylight
21 Apr - 15:07:58 10° WNW 15:16:30 44° SW 15:25:13 10° SSE daylight
